Home   Weather   Turin   Past weeks

Flag for Italy Past Weather in Turin, Italy — Yesterday and Last 2 Weeks

Now
50 °F

Sunny.


Feels Like: 49 °F
Forecast: 49 / 64 °F
Wind: 3 mph from Southeast

Location: Torino / Bric Della Croce

Current Time: Apr 29, 2017 at 1:36:17 pm

Latest Report: Apr 29, 2017 at 12:55 pm


Visibility: 10 mi

Pressure: 30.01 "Hg

Humidity: 37%

Dew Point: 25 °F

Location of TurinLocation

Past Weather in Turin — Graph

°F

Turin Temperature Yesterday

Maximum temperature yesterday: 52 °F (at 3:55 pm)
Minimum temperature yesterday: 34 °F (at 5:55 am)
Average temperature yesterday: 44 °F

High & Low Weather Summary for the Past Weeks

 TemperatureHumidityPressure
High66 °F (Apr 16, 3:55 pm)100% (Apr 14, 11:55 am)30.33 "Hg (Apr 14, 11:55 am)
Low34 °F (Apr 28, 5:55 am)10% (Apr 20, 11:55 pm)29.50 "Hg (Apr 28, 2:55 am)
Average51 °F62%29.96 "Hg
* Reported Apr 14 11:55 am — Apr 29 11:55 am, Turin, Weather by CustomWeather, © 2017

Note: Actual official high and low records may vary slightly from our data, if they occured in-between our weather recording intervals... More about our weather records

Advertising

Turin Weather History for the Previous 24 Hours

Scroll right to see more
 ConditionsComfort  
Time TempWeatherWind HumidityBarometerVisibility
11:55 am
Sat, Apr 29
48 °FSunny.No wind37%30.01 "Hg10 mi
10:55 am46 °FSunny.3 mph40%30.01 "Hg10 mi
9:55 am45 °FSunny.No wind46%30.01 "Hg10 mi
8:55 am45 °FSunny.No wind37%29.98 "Hg10 mi
7:55 am43 °FSunny.5 mph36%30.01 "Hg10 mi
6:55 am43 °FSunny.7 mph36%29.98 "Hg10 mi
5:55 am43 °FClear.3 mph36%29.95 "Hg10 mi
4:55 am43 °FClear.2 mph39%29.95 "Hg10 mi
3:55 am43 °FClear.5 mph36%29.95 "Hg10 mi
2:55 am45 °FClear.6 mph39%29.95 "Hg10 mi
1:55 am45 °FClear.2 mph31%29.95 "Hg10 mi
12:55 am46 °FClear.8 mph27%29.95 "Hg10 mi
11:55 pm
Fri, Apr 28
46 °FClear.3 mph29%29.92 "Hg10 mi
10:55 pm48 °FClear.5 mph27%29.92 "Hg10 mi
9:55 pm48 °FClear.2 mph32%29.92 "Hg10 mi
8:55 pm48 °FClear.6 mph34%29.86 "Hg10 mi
7:55 pm50 °FSunny.3 mph37%29.83 "Hg10 mi
6:55 pm50 °FScattered clouds.8 mph37%29.83 "HgN/A
5:55 pm50 °FScattered clouds.6 mph35%29.80 "HgN/A
4:55 pm52 °FSunny.3 mph44%29.77 "Hg10 mi
3:55 pm52 °FSunny.2 mph41%29.77 "Hg10 mi
2:55 pm50 °FSunny.5 mph58%29.77 "Hg10 mi
1:55 pm50 °FSunny.6 mph62%29.74 "Hg10 mi
Weather by CustomWeather, © 2017

See weather overviewHow to use our weather pages